BRISAT                  
1 41591U 16039A   19259.53122581 -.00000203  00000-0  00000+0 0  9997
2 41591   0.0167 215.3008 0002220 318.7054 162.9329  1.00271342 11913
ECHOSTAR 18             
1 41592U 16039B   19259.37063162 -.00000289  00000-0  00000+0 0  9993
2 41592   0.0049 144.4203 0001738  36.4912 246.2075  1.00272113 11902
ARIANE 5 R/B            
1 41593U 16039C   19258.22254108  .00000797  00000-0  47513-3 0  9996
2 41593   6.0259 286.4069 7249069  73.8105 349.3930  2.31222217 27239
ARIANE 5 DEB (SYLDA)    
1 41594U 16039D   19258.72638145  .00002334  00000-0  10005-2 0  9993
2 41594   5.7831 243.2093 6964968 164.7177 237.9287  2.67250187 29314